Notices

What's New in latest Release from April 7th, 2021:

- Updated Glossary, including Speed of Maximum Gust, and Total Hourly Precipitation

- Updated national and regional climate services offices contacts and prices information

- Addition of station inventory lists for 1981-2010, 1971-2000, and 1961-1990 Normals.

If you haven't already, please take our survey and provide feedback about our website: https://eccc.sondage-survey.ca/f/LanguageSelection.aspx?s=442ca660-fcf1-47c0-95a9-59707d6fd709

Hourly Data Report for June 15, 2004

SHERBROOKE A
QUEBEC

45°26'00.000" N
71°41'00.000" W
241.40 m
7028124
71610
YSC

Download Data

Hourly Data (June 2004)
Hourly Data Report for June 15, 2004
TIME
LST
Temp Definition
°C
Dew Point Definition
°C
Rel Hum Definition
%
Precip. Amount Definition
mm

Wind Dir Definition
10's deg

Wind Spd Definition
km/h
Visibility Definition
km
Stn Press Definition
kPa
Hmdx Definition


Wind Chill Definition


Weather Definition


00:00 16.3 14.2 87   11 4 15.0 98.22      
01:00 15.7 14.2 91   7 6 11.3 98.16      
02:00 16.3 14.5 89   13 4 11.3 98.11      
03:00 16.4 14.8 90     0 9.7 98.09     Rain
04:00 16.7 15.6 93   17 7 2.6 98.11     Moderate Rain
05:00 16.4 15.6 95   31 6 1.0 98.08     Moderate Rain
06:00 16.8 15.9 94   23 6 3.7 98.16      
07:00 17.3 16.3 94   26 7 16.1 98.24     Rain Showers
08:00 18.1 16.7 92   25 7 24.1 98.30     Mostly Cloudy
09:00 19.0 16.5 85   25 11 24.1 98.33     Mostly Cloudy
10:00 20.6 16.5 77   26 20 24.1 98.33 26   Mainly Clear
11:00 21.6 15.3 67   25 22 24.1 98.35 26   Mainly Clear
12:00 22.3 15.0 63   25 20 24.1 98.37 26   Mainly Clear
13:00 23.2 15.5 62   27 19 24.1 98.35 27   Mainly Clear
14:00 24.1 15.5 59   26 20 24.1 98.35 28   Mainly Clear
15:00 24.0 14.2 54   26 28 24.1 98.37 27   Mainly Clear
16:00 23.7 14.1 55   26 30 24.1 98.40 27   Mainly Clear
17:00 22.3 13.8 59   26 19 15.0 98.42 26    
18:00 21.9 14.6 63   26 9 15.0 98.43 26    
19:00 21.0 13.9 64   25 13 15.0 98.46      
20:00 19.7 13.7 68   25 11 15.0 98.54      
21:00 18.2 13.0 72   25 11 15.0 98.66      
22:00 16.9 11.7 71   34 6 15.0 98.81      
23:00 15.3 11.3 77   36 4 15.0 98.87      

Notes on Data Quality.

Legend

  • E = Estimated
  • M = Missing
  • NA = Not Available*
  • [empty] = Indicates an unobserved value
Date modified: